CES5701 ZYHB-ZWSH

Flight info

Callsign CES5701
Flight time N/A
Altitude 38100
Route ONI19D ONINA B451 HLD A345 KAGAK G338 AKTOS/K0887S1220 G338 SER H84 IM G588 FKG B215 XKC A468 LIMDO W119 AKS W176 PUBUR PUB09A
Aircraft A332/H-SDE3GHIJ2J3J5M1RVWXY/LB2D1

Departure

Time 2026-04-12 05:07
Airport Harbin Taiping International Airport (ZYHB)

Arrival

Time N/A
Airport Kashgar Laining International Airport (ZWSH)
Time Latitude Longitude Altitude Speed Heading
2026-04-12 04:58 45.61331 126.23096 514 ft 0 kts 219°
2026-04-12 05:02 45.61330 126.23093 514 ft 1 kts 219°
2026-04-12 05:02 45.61293 126.23052 514 ft 11 kts 211°
2026-04-12 05:03 45.61221 126.22991 514 ft 10 kts 217°
2026-04-12 05:03 45.61154 126.22943 514 ft 11 kts 174°
2026-04-12 05:03 45.61094 126.23009 514 ft 10 kts 134°
2026-04-12 05:03 45.61032 126.23024 514 ft 10 kts 206°
2026-04-12 05:04 45.60957 126.22951 514 ft 16 kts 219°
2026-04-12 05:04 45.60854 126.22839 514 ft 21 kts 200°
2026-04-12 05:04 45.60748 126.22934 514 ft 19 kts 131°
2026-04-12 05:04 45.60663 126.23082 514 ft 19 kts 129°
2026-04-12 05:05 45.60571 126.23236 514 ft 20 kts 133°
2026-04-12 05:05 45.60479 126.23393 514 ft 20 kts 129°
2026-04-12 05:05 45.60388 126.23553 514 ft 20 kts 130°
2026-04-12 05:05 45.60302 126.23698 514 ft 18 kts 130°
2026-04-12 05:06 45.60205 126.23770 514 ft 16 kts 200°
2026-04-12 05:06 45.60102 126.23656 514 ft 29 kts 219°
2026-04-12 05:06 45.59717 126.23204 515 ft 116 kts 219°
2026-04-12 05:06 45.58908 126.22258 674 ft 172 kts 218°
2026-04-12 05:07 45.57978 126.21146 1550 ft 176 kts 218°
2026-04-12 05:07 45.57047 126.20031 2023 ft 186 kts 217°
2026-04-12 05:07 45.56020 126.18803 2426 ft 203 kts 217°
2026-04-12 05:07 45.54908 126.17480 2997 ft 214 kts 217°
2026-04-12 05:08 45.53737 126.16089 3514 ft 229 kts 218°
2026-04-12 05:08 45.52484 126.14606 4099 ft 242 kts 219°
2026-04-12 05:08 45.51259 126.12873 4573 ft 260 kts 237°
2026-04-12 05:08 45.50712 126.10426 5388 ft 265 kts 267°
2026-04-12 05:09 45.51079 126.07887 6245 ft 268 kts 295°
2026-04-12 05:09 45.52271 126.05865 7064 ft 274 kts 323°
2026-04-12 05:09 45.54011 126.04885 7998 ft 277 kts 349°
2026-04-12 05:09 45.55922 126.05146 8810 ft 287 kts 15°
2026-04-12 05:10 45.57644 126.06656 9531 ft 300 kts 41°
2026-04-12 05:10 45.59125 126.08758 10204 ft 303 kts 33°
2026-04-12 05:10 45.60905 126.10384 10639 ft 316 kts 25°
2026-04-12 05:10 45.62862 126.11937 10989 ft 335 kts 24°
2026-04-12 05:11 45.64986 126.13538 11336 ft 353 kts 23°
2026-04-12 05:11 45.66375 126.14536 11508 ft 364 kts 19°
2026-04-12 05:11 45.68613 126.15372 11835 ft 367 kts 359°
2026-04-12 05:11 45.70862 126.15067 12582 ft 357 kts 339°
2026-04-12 05:12 45.72887 126.13825 13390 ft 346 kts 323°
2026-04-12 05:12 45.74519 126.11781 14005 ft 341 kts 307°
2026-04-12 05:12 45.75959 126.09460 14631 ft 346 kts 309°
2026-04-12 05:12 45.77506 126.07162 15366 ft 347 kts 309°
2026-04-12 05:13 45.79078 126.04853 16043 ft 349 kts 310°
2026-04-12 05:13 45.80663 126.02530 16579 ft 353 kts 310°
2026-04-12 05:13 45.82254 126.00197 17178 ft 356 kts 310°
2026-04-12 05:13 45.83871 125.97828 17824 ft 356 kts 310°
2026-04-12 05:14 45.85474 125.95473 18437 ft 357 kts 310°
2026-04-12 05:14 45.87092 125.93099 18997 ft 359 kts 310°
2026-04-12 05:14 45.88700 125.90735 19504 ft 362 kts 310°
2026-04-12 05:14 45.90357 125.88297 20028 ft 364 kts 309°
2026-04-12 05:15 45.91970 125.85922 20613 ft 363 kts 309°
2026-04-12 05:15 45.93622 125.83484 21141 ft 365 kts 308°
2026-04-12 05:15 45.95261 125.81064 21548 ft 368 kts 309°
2026-04-12 05:15 45.96921 125.78616 22036 ft 369 kts 308°
2026-04-12 05:16 45.98573 125.76169 22533 ft 370 kts 308°
2026-04-12 05:16 46.00217 125.73733 22918 ft 372 kts 308°
2026-04-12 05:16 46.01873 125.71283 23423 ft 372 kts 308°
2026-04-12 05:16 46.03532 125.68818 23704 ft 377 kts 308°
2026-04-12 05:17 46.05235 125.66292 24131 ft 378 kts 308°
2026-04-12 05:17 46.06903 125.63817 24437 ft 381 kts 308°
2026-04-12 05:17 46.08611 125.61279 24771 ft 383 kts 308°
2026-04-12 05:17 46.10312 125.58749 25239 ft 382 kts 308°
2026-04-12 05:18 46.12004 125.56228 25528 ft 386 kts 307°
2026-04-12 05:18 46.13704 125.53693 25792 ft 389 kts 307°
2026-04-12 05:18 46.15422 125.51137 26124 ft 390 kts 307°
2026-04-12 05:18 46.17169 125.48527 26463 ft 392 kts 307°
2026-04-12 05:19 46.18903 125.45931 26815 ft 393 kts 307°
2026-04-12 05:19 46.20649 125.43321 27032 ft 397 kts 307°
2026-04-12 05:19 46.22368 125.40746 27404 ft 396 kts 307°
2026-04-12 05:19 46.24127 125.38116 27756 ft 397 kts 307°
2026-04-12 05:20 46.25869 125.35497 27859 ft 403 kts 307°
2026-04-12 05:20 46.27586 125.32854 28190 ft 399 kts 303°
2026-04-12 05:20 46.29313 125.30149 28515 ft 406 kts 310°
2026-04-12 05:20 46.31220 125.27667 28710 ft 407 kts 308°
2026-04-12 05:21 46.33073 125.25112 28961 ft 409 kts 308°
2026-04-12 05:21 46.34904 125.22543 29194 ft 410 kts 307°
2026-04-12 05:21 46.36760 125.19923 29420 ft 411 kts 307°
2026-04-12 05:21 46.38625 125.17271 29827 ft 408 kts 307°
2026-04-12 05:22 46.40456 125.14664 30096 ft 409 kts 307°
2026-04-12 05:22 46.42274 125.12068 30398 ft 408 kts 307°
2026-04-12 05:22 46.44089 125.09476 30641 ft 409 kts 307°
2026-04-12 05:22 46.45928 125.06847 30975 ft 408 kts 307°
2026-04-12 05:23 46.47766 125.04213 31214 ft 408 kts 307°
2026-04-12 05:23 46.49596 125.01592 31452 ft 409 kts 307°
2026-04-12 05:23 46.51407 124.98993 31749 ft 408 kts 307°
2026-04-12 05:23 46.53258 124.96336 31993 ft 408 kts 307°
2026-04-12 05:24 46.55068 124.93735 32239 ft 408 kts 307°
2026-04-12 05:24 46.56913 124.91082 32389 ft 409 kts 307°
2026-04-12 05:24 46.58743 124.88443 32588 ft 409 kts 307°
2026-04-12 05:24 46.60573 124.85805 32698 ft 411 kts 307°
2026-04-12 05:25 46.62409 124.83154 32844 ft 412 kts 307°
2026-04-12 05:25 46.64257 124.80486 33129 ft 409 kts 307°
2026-04-12 05:25 46.66069 124.77866 33291 ft 410 kts 307°
2026-04-12 05:25 46.67919 124.75185 33408 ft 411 kts 307°
2026-04-12 05:26 46.69733 124.72558 33525 ft 413 kts 307°
2026-04-12 05:26 46.71575 124.69888 33701 ft 413 kts 307°
2026-04-12 05:26 46.73424 124.67201 33859 ft 413 kts 307°
2026-04-12 05:26 46.75267 124.64523 34010 ft 414 kts 307°
2026-04-12 05:27 46.77125 124.61820 34250 ft 412 kts 307°
2026-04-12 05:27 46.78944 124.59171 34415 ft 411 kts 307°
2026-04-12 05:27 46.80780 124.56493 34514 ft 413 kts 307°
2026-04-12 05:27 46.82622 124.53804 34623 ft 414 kts 307°
2026-04-12 05:28 46.84470 124.51106 34828 ft 412 kts 307°
2026-04-12 05:28 46.86290 124.48446 34953 ft 413 kts 307°
2026-04-12 05:28 46.88123 124.45760 35041 ft 414 kts 307°
2026-04-12 05:28 46.89991 124.43025 35205 ft 414 kts 307°
2026-04-12 05:29 46.91829 124.40326 35341 ft 414 kts 308°
2026-04-12 05:29 46.93661 124.37636 35461 ft 414 kts 308°
2026-04-12 05:29 46.95501 124.34933 35612 ft 414 kts 307°
2026-04-12 05:29 46.97343 124.32223 35799 ft 413 kts 307°
2026-04-12 05:30 46.99169 124.29533 35936 ft 413 kts 307°
2026-04-12 05:30 47.01000 124.26835 36050 ft 414 kts 307°
2026-04-12 05:30 47.02811 124.24160 36181 ft 414 kts 307°
2026-04-12 05:30 47.04658 124.21430 36292 ft 414 kts 307°
2026-04-12 05:31 47.06490 124.18720 36417 ft 414 kts 307°
2026-04-12 05:31 47.08331 124.15995 36548 ft 414 kts 307°
2026-04-12 05:31 47.10146 124.13306 36657 ft 414 kts 307°
2026-04-12 05:31 47.11977 124.10590 36763 ft 414 kts 307°
2026-04-12 05:32 47.13809 124.07867 36853 ft 415 kts 308°
2026-04-12 05:32 47.17491 124.02392 37044 ft 416 kts 307°
2026-04-12 05:33 47.21154 123.96930 37220 ft 416 kts 307°
2026-04-12 05:33 47.24727 123.91396 37414 ft 410 kts 301°
2026-04-12 05:34 47.27751 123.85296 37591 ft 409 kts 300°
2026-04-12 05:34 47.30754 123.79213 37791 ft 408 kts 300°
2026-04-12 05:34 47.32255 123.76160 37917 ft 407 kts 300°
2026-04-12 05:35 47.33766 123.73090 37929 ft 410 kts 300°
2026-04-12 05:35 47.36806 123.66896 37925 ft 413 kts 300°
2026-04-12 05:36 47.39845 123.60689 37885 ft 418 kts 300°
2026-04-12 05:36 47.42893 123.54455 37971 ft 419 kts 300°
2026-04-12 05:37 47.45998 123.48087 37875 ft 423 kts 300°
2026-04-12 05:37 47.49080 123.41752 37968 ft 422 kts 300°
2026-04-12 05:38 47.52193 123.35335 37880 ft 426 kts 300°
2026-04-12 05:38 47.55289 123.28943 37960 ft 426 kts 299°
2026-04-12 05:39 47.58386 123.22528 37875 ft 429 kts 299°
2026-04-12 05:39 47.61507 123.16056 37927 ft 429 kts 300°
2026-04-12 05:40 47.64623 123.09577 37917 ft 429 kts 300°
2026-04-12 05:40 47.67694 123.03176 37954 ft 426 kts 299°
2026-04-12 05:41 47.70790 122.96703 37885 ft 424 kts 299°
2026-04-12 05:41 47.73853 122.90286 37935 ft 426 kts 299°
2026-04-12 05:42 47.76907 122.83875 37901 ft 426 kts 299°
2026-04-12 05:42 47.79998 122.77370 37909 ft 427 kts 300°
2026-04-12 05:43 47.84822 122.67712 37867 ft 430 kts 301°
2026-04-12 05:43 47.88023 122.61306 37884 ft 430 kts 301°
2026-04-12 05:44 47.91259 122.54815 37943 ft 428 kts 301°
2026-04-12 05:44 47.94445 122.48402 37891 ft 430 kts 301°
2026-04-12 05:45 47.97683 122.41873 37916 ft 429 kts 301°
2026-04-12 05:45 48.00891 122.35387 37886 ft 430 kts 301°
2026-04-12 05:46 48.04090 122.28906 37961 ft 429 kts 300°
2026-04-12 05:46 48.07295 122.22398 37879 ft 432 kts 300°
2026-04-12 05:47 48.10493 122.15885 37951 ft 430 kts 300°
2026-04-12 05:47 48.13685 122.09373 37923 ft 430 kts 300°
2026-04-12 05:48 48.16878 122.02839 37908 ft 429 kts 300°
2026-04-12 05:48 48.20045 121.96344 37945 ft 429 kts 301°
2026-04-12 05:49 48.23211 121.89837 37895 ft 430 kts 301°
2026-04-12 05:49 48.26373 121.83321 37979 ft 428 kts 301°
2026-04-12 05:50 48.29526 121.76811 37878 ft 430 kts 301°
2026-04-12 05:50 48.32682 121.70278 37961 ft 427 kts 300°
2026-04-12 05:51 48.35813 121.63779 37879 ft 428 kts 301°
2026-04-12 05:51 48.38953 121.57247 37949 ft 426 kts 301°
2026-04-12 05:52 48.42094 121.50696 37900 ft 428 kts 301°
2026-04-12 05:52 48.45223 121.44155 37923 ft 426 kts 301°
2026-04-12 05:53 48.48337 121.37627 37873 ft 427 kts 301°
2026-04-12 05:53 48.51450 121.31089 37891 ft 428 kts 300°
2026-04-12 05:54 48.54571 121.24517 37798 ft 431 kts 300°
2026-04-12 05:54 48.57688 121.17938 37953 ft 426 kts 300°
2026-04-12 05:55 48.60785 121.11385 37905 ft 427 kts 300°
2026-04-12 05:55 48.63879 121.04822 37898 ft 426 kts 300°
2026-04-12 05:56 48.66989 120.98209 37934 ft 426 kts 300°
2026-04-12 05:56 48.70084 120.91614 37913 ft 427 kts 300°
2026-04-12 05:57 48.73180 120.84995 37907 ft 430 kts 300°
2026-04-12 05:57 48.76287 120.78344 37937 ft 428 kts 300°
2026-04-12 05:58 48.79381 120.71699 37884 ft 428 kts 300°
2026-04-12 05:58 48.82459 120.65072 37929 ft 429 kts 300°
2026-04-12 05:59 48.85582 120.58333 37917 ft 430 kts 301°
2026-04-12 05:59 48.88679 120.51632 37922 ft 430 kts 300°
2026-04-12 06:00 48.91786 120.44896 37932 ft 431 kts 301°
2026-04-12 06:00 48.94877 120.38174 37953 ft 431 kts 300°
2026-04-12 06:01 48.97966 120.31438 37935 ft 431 kts 300°
2026-04-12 06:01 49.01046 120.24712 37958 ft 430 kts 300°
2026-04-12 06:02 49.04136 120.17942 37972 ft 430 kts 300°
2026-04-12 06:02 49.07219 120.11172 37949 ft 431 kts 300°
2026-04-12 06:03 49.10299 120.04392 37993 ft 432 kts 300°
2026-04-12 06:03 49.13383 119.97585 37991 ft 432 kts 300°
2026-04-12 06:04 49.16472 119.90748 37988 ft 434 kts 300°
2026-04-12 06:04 49.19468 119.83916 38011 ft 428 kts 294°
2026-04-12 06:05 49.20406 119.80117 37982 ft 422 kts 279°
2026-04-12 06:05 49.20676 119.76115 38035 ft 418 kts 271°
2026-04-12 06:05 49.20958 119.68137 37978 ft 421 kts 272°
2026-04-12 06:06 49.21292 119.60083 38012 ft 419 kts 272°
2026-04-12 06:06 49.21627 119.52054 38001 ft 418 kts 272°
2026-04-12 06:07 49.21958 119.44052 37997 ft 418 kts 272°
2026-04-12 06:07 49.22283 119.36049 38002 ft 417 kts 272°
2026-04-12 06:08 49.22601 119.28068 38018 ft 416 kts 272°
2026-04-12 06:08 49.22913 119.20119 38000 ft 417 kts 272°
2026-04-12 06:09 49.23221 119.12119 37991 ft 416 kts 272°
2026-04-12 06:09 49.23520 119.04194 38001 ft 416 kts 272°
2026-04-12 06:10 49.23817 118.96229 38015 ft 414 kts 272°
2026-04-12 06:10 49.24106 118.88278 38009 ft 414 kts 272°
2026-04-12 06:11 49.24392 118.80328 38013 ft 415 kts 272°
2026-04-12 06:11 49.24670 118.72374 38029 ft 414 kts 272°
2026-04-12 06:12 49.24943 118.64422 38036 ft 414 kts 272°
2026-04-12 06:12 49.25212 118.56467 38038 ft 414 kts 272°
2026-04-12 06:13 49.25473 118.48533 38055 ft 415 kts 272°
2026-04-12 06:13 49.25731 118.40587 38047 ft 414 kts 272°
2026-04-12 06:14 49.25980 118.32664 38055 ft 415 kts 271°
2026-04-12 06:14 49.26226 118.24719 38076 ft 413 kts 271°
2026-04-12 06:15 49.26466 118.16801 38070 ft 413 kts 271°
2026-04-12 06:15 49.26266 118.08871 38049 ft 414 kts 256°
2026-04-12 06:16 49.25268 118.05223 38111 ft 417 kts 244°
2026-04-12 06:16 49.24022 118.01646 38119 ft 418 kts 245°
2026-04-12 06:16 49.21664 117.94479 38095 ft 416 kts 246°
2026-04-12 06:17 49.19338 117.87318 38081 ft 416 kts 246°
2026-04-12 06:17 49.17014 117.80170 38106 ft 415 kts 246°
2026-04-12 06:18 49.14690 117.73035 38086 ft 416 kts 246°
2026-04-12 06:18 49.12369 117.65938 38093 ft 416 kts 246°
2026-04-12 06:19 49.10021 117.58771 38097 ft 414 kts 246°
2026-04-12 06:19 49.07699 117.51703 38090 ft 414 kts 246°
2026-04-12 06:20 49.05358 117.44604 38111 ft 414 kts 247°
2026-04-12 06:20 49.03007 117.37488 38118 ft 414 kts 246°
2026-04-12 06:21 49.00669 117.30434 38138 ft 415 kts 246°
2026-04-12 06:21 48.98313 117.23342 38138 ft 413 kts 246°
2026-04-12 06:22 48.95958 117.16270 38147 ft 414 kts 246°
2026-04-12 06:22 48.93668 117.09094 38140 ft 413 kts 247°
2026-04-12 06:23 48.91423 117.01989 38143 ft 413 kts 247°
2026-04-12 06:23 48.89142 116.94790 38146 ft 414 kts 247°
2026-04-12 06:24 48.86884 116.87685 38141 ft 413 kts 247°
2026-04-12 06:24 48.84595 116.80513 38147 ft 415 kts 247°
2026-04-12 06:25 48.82323 116.73400 38134 ft 414 kts 247°
2026-04-12 06:25 48.80030 116.66257 38136 ft 416 kts 247°
2026-04-12 06:26 48.77731 116.59102 38138 ft 415 kts 247°
2026-04-12 06:26 48.75417 116.51926 38142 ft 414 kts 248°
2026-04-12 06:27 48.73103 116.44774 38136 ft 417 kts 247°
2026-04-12 06:27 48.70780 116.37614 38133 ft 417 kts 247°
2026-04-12 06:28 48.68452 116.30451 38148 ft 417 kts 247°
2026-04-12 06:28 48.66113 116.23279 38142 ft 417 kts 246°
2026-04-12 06:29 48.63773 116.16129 38169 ft 417 kts 247°
2026-04-12 06:29 48.61424 116.08969 38159 ft 417 kts 247°
2026-04-12 06:30 48.59081 116.01836 38170 ft 418 kts 246°
2026-04-12 06:30 48.56725 115.94701 38162 ft 418 kts 247°
2026-04-12 06:31 48.54351 115.87521 38154 ft 417 kts 247°
2026-04-12 06:31 48.52008 115.80461 38170 ft 416 kts 247°
2026-04-12 06:32 48.49606 115.73372 38158 ft 416 kts 246°
2026-04-12 06:32 48.47201 115.66341 38186 ft 415 kts 246°
2026-04-12 06:33 48.44793 115.59325 38147 ft 416 kts 247°
2026-04-12 06:33 48.42378 115.52309 38183 ft 416 kts 246°
2026-04-12 06:34 48.39957 115.45290 38186 ft 413 kts 246°
2026-04-12 06:34 48.37523 115.38251 38172 ft 416 kts 247°
2026-04-12 06:35 48.33878 115.27745 38189 ft 415 kts 246°
2026-04-12 06:36 48.31430 115.20726 38191 ft 412 kts 246°
2026-04-12 06:36 48.29027 115.13834 38183 ft 412 kts 246°
2026-04-12 06:37 48.26601 115.06908 38195 ft 410 kts 246°
2026-04-12 06:37 48.24163 114.99960 38185 ft 412 kts 246°
2026-04-12 06:38 48.21729 114.93045 38192 ft 410 kts 246°
2026-04-12 06:38 48.19304 114.86178 38195 ft 410 kts 246°
2026-04-12 06:39 48.16861 114.79275 38193 ft 411 kts 246°
2026-04-12 06:39 48.14426 114.72405 38201 ft 410 kts 246°
2026-04-12 06:40 48.12548 114.65272 38163 ft 402 kts 265°
2026-04-12 06:40 48.12432 114.57732 38201 ft 404 kts 269°
2026-04-12 06:41 48.12250 114.50205 38205 ft 401 kts 269°
2026-04-12 06:41 48.12041 114.42692 38168 ft 403 kts 269°
2026-04-12 06:42 48.11819 114.35114 38182 ft 402 kts 269°
2026-04-12 06:42 48.11594 114.27607 38204 ft 402 kts 268°
2026-04-12 06:43 48.11361 114.20012 38187 ft 403 kts 268°
2026-04-12 06:43 48.11124 114.12460 38181 ft 400 kts 268°
2026-04-12 06:44 48.10882 114.04885 38171 ft 402 kts 268°
2026-04-12 06:44 48.10635 113.97328 38197 ft 402 kts 268°
2026-04-12 06:45 48.10383 113.89783 38173 ft 402 kts 268°
2026-04-12 06:45 48.10130 113.82299 38161 ft 402 kts 268°
2026-04-12 06:46 48.09869 113.74746 38182 ft 402 kts 268°
2026-04-12 06:46 48.09602 113.67219 38179 ft 402 kts 269°
2026-04-12 06:47 48.09334 113.59689 38167 ft 400 kts 268°
2026-04-12 06:47 48.09056 113.52162 38163 ft 401 kts 268°
2026-04-12 06:48 48.08782 113.44740 38173 ft 399 kts 268°
2026-04-12 06:48 48.08495 113.37249 38171 ft 399 kts 269°
2026-04-12 06:49 48.08205 113.29699 38181 ft 400 kts 268°
2026-04-12 06:49 48.07912 113.22215 38195 ft 400 kts 268°
2026-04-12 06:50 48.07614 113.14715 38207 ft 400 kts 268°
2026-04-12 06:50 48.07307 113.07175 38202 ft 400 kts 268°
2026-04-12 06:51 48.07001 112.99728 38214 ft 399 kts 268°
2026-04-12 06:51 48.06687 112.92247 38190 ft 399 kts 267°
2026-04-12 06:52 48.06371 112.84805 38188 ft 399 kts 268°
2026-04-12 06:52 48.06049 112.77325 38173 ft 398 kts 268°
2026-04-12 06:53 48.05727 112.69956 38185 ft 398 kts 268°
2026-04-12 06:53 48.05393 112.62457 38173 ft 398 kts 268°
2026-04-12 06:54 48.05058 112.55046 38178 ft 398 kts 268°
2026-04-12 06:54 48.04722 112.47640 38191 ft 398 kts 268°
2026-04-12 06:55 48.04374 112.40184 38165 ft 397 kts 268°
2026-04-12 06:55 48.04024 112.32786 38182 ft 399 kts 267°
2026-04-12 06:56 48.03669 112.25317 38152 ft 398 kts 268°
2026-04-12 06:56 48.03312 112.17905 38198 ft 398 kts 268°
2026-04-12 06:57 48.02948 112.10488 38164 ft 397 kts 268°
2026-04-12 06:57 48.02581 112.03062 38191 ft 397 kts 268°
2026-04-12 06:58 48.02207 111.95629 38169 ft 397 kts 267°
2026-04-12 06:58 48.01831 111.88273 38178 ft 396 kts 267°
2026-04-12 06:59 48.01448 111.80859 38142 ft 396 kts 267°
2026-04-12 06:59 48.01065 111.73517 38178 ft 398 kts 268°
2026-04-12 07:00 48.00473 111.62389 38174 ft 395 kts 268°
2026-04-12 07:00 48.00079 111.55029 38154 ft 396 kts 267°
2026-04-12 07:01 47.99676 111.47639 38191 ft 395 kts 268°
2026-04-12 07:01 47.99267 111.40279 38140 ft 392 kts 268°
2026-04-12 07:02 47.98856 111.32886 38179 ft 395 kts 267°
2026-04-12 07:02 47.98440 111.25539 38174 ft 393 kts 266°
2026-04-12 07:03 47.98022 111.18163 38171 ft 396 kts 267°
2026-04-12 07:03 47.97593 111.10754 38138 ft 394 kts 267°
2026-04-12 07:04 47.97163 111.03387 38128 ft 394 kts 267°
2026-04-12 07:04 47.96730 110.96052 38160 ft 394 kts 267°
2026-04-12 07:05 47.96287 110.88689 38108 ft 393 kts 267°
2026-04-12 07:05 47.95843 110.81310 38128 ft 394 kts 267°
2026-04-12 07:06 47.95394 110.73956 38152 ft 393 kts 267°
2026-04-12 07:06 47.94942 110.66644 38116 ft 394 kts 267°
2026-04-12 07:07 47.94485 110.59303 38125 ft 394 kts 267°
2026-04-12 07:07 47.94024 110.51992 38136 ft 392 kts 267°
2026-04-12 07:08 47.93556 110.44621 38105 ft 393 kts 267°
2026-04-12 07:08 47.93082 110.37289 38135 ft 393 kts 267°
2026-04-12 07:09 47.92606 110.29938 38167 ft 396 kts 266°
2026-04-12 07:09 47.92123 110.22583 38102 ft 396 kts 266°
2026-04-12 07:10 47.91634 110.15211 38115 ft 395 kts 266°
2026-04-12 07:10 47.91141 110.07836 38166 ft 395 kts 266°
2026-04-12 07:11 47.90643 110.00468 38121 ft 395 kts 266°
2026-04-12 07:11 47.90144 109.93161 38149 ft 393 kts 266°
2026-04-12 07:12 47.89641 109.85837 38107 ft 391 kts 266°
2026-04-12 07:12 47.89136 109.78587 38155 ft 394 kts 266°
2026-04-12 07:13 47.88624 109.71286 38138 ft 392 kts 267°
2026-04-12 07:13 47.88108 109.64003 38100 ft 392 kts 266°
2026-04-12 07:14 47.87588 109.56713 38110 ft 392 kts 266°
2026-04-12 07:14 47.87065 109.49455 38118 ft 390 kts 266°
2026-04-12 07:15 47.86539 109.42247 38084 ft 390 kts 266°
2026-04-12 07:15 47.86006 109.35005 38106 ft 390 kts 266°
2026-04-12 07:16 47.85473 109.27758 38134 ft 389 kts 265°
2026-04-12 07:16 47.84934 109.20579 38109 ft 388 kts 266°
2026-04-12 07:17 47.84397 109.13427 38128 ft 388 kts 265°
2026-04-12 07:17 47.83846 109.06184 38144 ft 388 kts 265°
2026-04-12 07:18 47.83296 108.99007 38117 ft 387 kts 265°
2026-04-12 07:18 47.82740 108.91814 38119 ft 387 kts 265°
2026-04-12 07:19 47.82182 108.84642 38122 ft 387 kts 265°
2026-04-12 07:19 47.81617 108.77470 38089 ft 387 kts 265°
2026-04-12 07:20 47.81052 108.70318 38096 ft 386 kts 265°
2026-04-12 07:20 47.80481 108.63155 38113 ft 387 kts 265°
2026-04-12 07:21 47.79904 108.55969 38111 ft 386 kts 265°
2026-04-12 07:21 47.79325 108.48850 38119 ft 387 kts 265°
2026-04-12 07:22 47.78741 108.41685 38135 ft 386 kts 265°
2026-04-12 07:22 47.78147 108.34487 38104 ft 385 kts 265°
2026-04-12 07:23 47.77554 108.27365 38119 ft 388 kts 265°
2026-04-12 07:23 47.76958 108.20242 38135 ft 385 kts 265°
2026-04-12 07:24 47.76355 108.13068 38111 ft 387 kts 265°
2026-04-12 07:24 47.75754 108.05965 38125 ft 385 kts 264°
2026-04-12 07:25 47.75145 107.98854 38099 ft 385 kts 265°
2026-04-12 07:25 47.74533 107.91757 38128 ft 385 kts 265°
2026-04-12 07:26 47.73917 107.84685 38099 ft 385 kts 264°
2026-04-12 07:26 47.73292 107.77572 38096 ft 385 kts 264°
2026-04-12 07:27 47.72662 107.70450 38095 ft 384 kts 265°
2026-04-12 07:27 47.72031 107.63348 38091 ft 386 kts 265°
2026-04-12 07:28 47.71393 107.56227 38119 ft 385 kts 265°
2026-04-12 07:28 47.70754 107.49155 38100 ft 386 kts 265°
2026-04-12 07:29 47.70110 107.42065 38105 ft 385 kts 265°
2026-04-12 07:29 47.69453 107.34905 38106 ft 385 kts 264°
2026-04-12 07:30 47.68909 107.28970 38106 ft 385 kts 264°
2026-04-12 07:30 47.68141 107.20716 38106 ft 385 kts 264°
2026-04-12 07:31 47.67479 107.13622 38147 ft 384 kts 264°
2026-04-12 07:31 47.66818 107.06561 38157 ft 385 kts 264°
2026-04-12 07:32 47.66145 106.99421 38141 ft 386 kts 264°
2026-04-12 07:32 47.65475 106.92359 38158 ft 384 kts 264°
2026-04-12 07:33 47.64800 106.85305 38161 ft 384 kts 264°
2026-04-12 07:33 47.64728 106.78220 38147 ft 382 kts 278°
2026-04-12 07:34 47.65428 106.71152 38133 ft 386 kts 277°
2026-04-12 07:34 47.66072 106.64066 38168 ft 383 kts 277°
2026-04-12 07:35 47.66699 106.56982 38139 ft 382 kts 276°
2026-04-12 07:35 47.67322 106.49921 38133 ft 384 kts 277°
2026-04-12 07:36 47.67942 106.42786 38151 ft 385 kts 277°
2026-04-12 07:36 47.68556 106.35713 38145 ft 383 kts 276°
2026-04-12 07:37 47.69163 106.28637 38137 ft 384 kts 276°
2026-04-12 07:37 47.69767 106.21561 38130 ft 385 kts 276°
2026-04-12 07:38 47.70374 106.14394 38130 ft 384 kts 276°
2026-04-12 07:38 47.70967 106.07328 38100 ft 385 kts 276°
2026-04-12 07:39 47.71560 106.00233 38117 ft 384 kts 276°
2026-04-12 07:39 47.72146 105.93135 38106 ft 384 kts 276°
2026-04-12 07:40 47.72732 105.86004 38096 ft 385 kts 276°
2026-04-12 07:40 47.73311 105.78882 38108 ft 384 kts 276°
2026-04-12 07:41 47.73886 105.71768 38100 ft 384 kts 276°
2026-04-12 07:41 47.74455 105.64684 38088 ft 385 kts 276°
2026-04-12 07:42 47.75020 105.57583 38135 ft 384 kts 276°
2026-04-12 07:43 47.76142 105.43323 38122 ft 385 kts 276°
2026-04-12 07:43 47.76692 105.36214 38119 ft 384 kts 276°
2026-04-12 07:44 47.77244 105.29043 38115 ft 386 kts 275°
2026-04-12 07:44 47.77792 105.21877 38131 ft 384 kts 275°
2026-04-12 07:45 47.78331 105.14777 38114 ft 384 kts 275°
2026-04-12 07:45 47.78863 105.07680 38130 ft 384 kts 275°
2026-04-12 07:46 47.79395 105.00532 38110 ft 384 kts 275°
2026-04-12 07:46 47.79924 104.93372 38120 ft 385 kts 275°
2026-04-12 07:47 47.80448 104.86231 38118 ft 383 kts 275°
2026-04-12 07:47 47.80962 104.79156 38119 ft 387 kts 275°
2026-04-12 07:48 47.81479 104.71980 38121 ft 384 kts 275°
2026-04-12 07:48 47.81994 104.64790 38111 ft 386 kts 275°
2026-04-12 07:49 47.82499 104.57642 38098 ft 388 kts 275°
2026-04-12 07:49 47.83003 104.50446 38142 ft 386 kts 275°
2026-04-12 07:50 47.83502 104.43251 38102 ft 387 kts 275°
2026-04-12 07:50 47.83997 104.36073 38099 ft 387 kts 275°
2026-04-12 07:51 47.84486 104.28891 38139 ft 387 kts 275°
2026-04-12 07:51 47.84972 104.21718 38100 ft 385 kts 275°
2026-04-12 07:52 47.85453 104.14528 38130 ft 388 kts 275°
2026-04-12 07:52 47.85931 104.07325 38138 ft 387 kts 275°
2026-04-12 07:53 47.86405 104.00093 38114 ft 388 kts 275°
2026-04-12 07:53 47.86875 103.92882 38140 ft 388 kts 274°
2026-04-12 07:54 47.87340 103.85668 38137 ft 387 kts 275°
2026-04-12 07:54 47.87801 103.78414 38101 ft 388 kts 275°
2026-04-12 07:55 47.88259 103.71175 38124 ft 391 kts 275°
2026-04-12 07:55 47.88710 103.63953 38135 ft 389 kts 275°
2026-04-12 07:56 47.89160 103.56702 38096 ft 388 kts 275°
2026-04-12 07:56 47.89597 103.49506 38146 ft 388 kts 275°
2026-04-12 07:57 47.90036 103.42301 38097 ft 389 kts 275°
2026-04-12 07:57 47.90467 103.35091 38117 ft 388 kts 275°
2026-04-12 07:58 47.90826 103.27799 38135 ft 389 kts 270°
2026-04-12 07:58 47.90808 103.20522 38082 ft 389 kts 270°
2026-04-12 07:59 47.90801 103.13248 38118 ft 389 kts 270°
2026-04-12 07:59 47.90788 103.05920 38078 ft 389 kts 270°
2026-04-12 08:00 47.90775 102.98679 38096 ft 389 kts 270°
2026-04-12 08:00 47.90754 102.91376 38092 ft 386 kts 270°
2026-04-12 08:01 47.90729 102.84153 38090 ft 390 kts 270°
2026-04-12 08:01 47.90701 102.76815 38107 ft 389 kts 270°
2026-04-12 08:02 47.90669 102.69560 38110 ft 390 kts 270°
2026-04-12 08:02 47.90630 102.62253 38088 ft 391 kts 270°
2026-04-12 08:03 47.90588 102.54995 38110 ft 390 kts 270°
2026-04-12 08:03 47.90543 102.47643 38079 ft 391 kts 270°
2026-04-12 08:04 47.90490 102.40363 38113 ft 391 kts 270°
2026-04-12 08:04 47.90434 102.33054 38114 ft 391 kts 270°
2026-04-12 08:05 47.90373 102.25706 38085 ft 393 kts 269°
2026-04-12 08:05 47.90305 102.18371 38110 ft 393 kts 269°
2026-04-12 08:06 47.90233 102.11015 38090 ft 393 kts 269°
2026-04-12 08:06 47.90159 102.03692 38111 ft 393 kts 270°
2026-04-12 08:07 47.90078 101.96271 38086 ft 393 kts 270°
2026-04-12 08:07 47.89993 101.88904 38075 ft 395 kts 270°
2026-04-12 08:08 47.89903 101.81554 38105 ft 393 kts 270°
2026-04-12 08:08 47.89811 101.74232 38086 ft 393 kts 270°
2026-04-12 08:09 47.89710 101.66896 38095 ft 393 kts 270°
2026-04-12 08:09 47.89608 101.59482 38114 ft 392 kts 269°
2026-04-12 08:10 47.89498 101.52137 38079 ft 393 kts 270°
2026-04-12 08:10 47.89384 101.44788 38091 ft 392 kts 270°
2026-04-12 08:11 47.89266 101.37444 38100 ft 393 kts 270°
2026-04-12 08:11 47.89143 101.30047 38086 ft 394 kts 269°
2026-04-12 08:12 47.89015 101.22638 38096 ft 394 kts 269°
2026-04-12 08:12 47.88885 101.15273 38100 ft 393 kts 269°
2026-04-12 08:13 47.88747 101.07938 38076 ft 395 kts 269°
2026-04-12 08:13 47.88605 101.00554 38085 ft 393 kts 269°
2026-04-12 08:14 47.88461 100.93183 38060 ft 393 kts 269°
2026-04-12 08:14 47.88308 100.85834 38072 ft 394 kts 269°
2026-04-12 08:15 47.88150 100.78477 38052 ft 394 kts 269°
2026-04-12 08:15 47.87992 100.71118 38055 ft 395 kts 269°
2026-04-12 08:16 47.87825 100.63701 38060 ft 395 kts 269°
2026-04-12 08:16 47.87657 100.56329 38054 ft 394 kts 269°
2026-04-12 08:17 47.87483 100.48939 38065 ft 397 kts 269°
2026-04-12 08:17 47.87300 100.41575 38060 ft 394 kts 269°
2026-04-12 08:18 47.87115 100.34181 38075 ft 398 kts 268°
2026-04-12 08:18 47.86926 100.26784 38087 ft 396 kts 268°
2026-04-12 08:19 47.86731 100.19352 38078 ft 397 kts 268°
2026-04-12 08:19 47.86527 100.11903 38049 ft 397 kts 268°
2026-04-12 08:20 47.86322 100.04463 38074 ft 398 kts 268°
2026-04-12 08:20 47.86112 99.96990 38020 ft 399 kts 268°
2026-04-12 08:21 47.85895 99.89578 38046 ft 400 kts 268°
2026-04-12 08:21 47.85674 99.82137 38058 ft 398 kts 268°
2026-04-12 08:22 47.85450 99.74677 38047 ft 401 kts 268°
2026-04-12 08:22 47.85217 99.67207 38027 ft 400 kts 269°
2026-04-12 08:23 47.84981 99.59770 38088 ft 399 kts 269°
2026-04-12 08:23 47.84743 99.52296 38061 ft 402 kts 268°
2026-04-12 08:24 47.84494 99.44785 38066 ft 402 kts 268°
2026-04-12 08:24 47.84246 99.37315 38086 ft 399 kts 268°
2026-04-12 08:25 47.83988 99.29814 38050 ft 402 kts 268°
2026-04-12 08:25 47.83725 99.22321 38056 ft 402 kts 268°
2026-04-12 08:26 47.83461 99.14819 38066 ft 401 kts 268°
2026-04-12 08:26 47.83190 99.07341 38063 ft 403 kts 268°
2026-04-12 08:27 47.82913 98.99809 38042 ft 401 kts 268°
2026-04-12 08:27 47.82631 98.92296 38035 ft 403 kts 268°
2026-04-12 08:28 47.82344 98.84807 38078 ft 403 kts 268°
2026-04-12 08:28 47.82052 98.77268 38070 ft 405 kts 268°
2026-04-12 08:29 47.81757 98.69765 38078 ft 405 kts 268°
2026-04-12 08:29 47.81455 98.62216 38103 ft 403 kts 268°
2026-04-12 08:30 47.81147 98.54702 38064 ft 406 kts 268°
2026-04-12 08:30 47.80835 98.47177 38078 ft 404 kts 268°
2026-04-12 08:31 47.80517 98.39614 38048 ft 406 kts 268°
2026-04-12 08:31 47.80196 98.32065 38059 ft 406 kts 267°
2026-04-12 08:32 47.79865 98.24474 38043 ft 407 kts 267°
2026-04-12 08:32 47.79530 98.16883 38059 ft 406 kts 267°
2026-04-12 08:33 47.79192 98.09305 38087 ft 408 kts 268°
2026-04-12 08:33 47.78849 98.01711 38100 ft 408 kts 267°
2026-04-12 08:34 47.78497 97.94103 38145 ft 409 kts 267°
2026-04-12 08:34 47.78139 97.86457 38078 ft 409 kts 267°
2026-04-12 08:35 47.77778 97.78844 38037 ft 410 kts 268°
2026-04-12 08:35 47.77412 97.71226 38019 ft 409 kts 267°
2026-04-12 08:36 47.77039 97.63578 38011 ft 411 kts 267°
2026-04-12 08:36 47.76659 97.55931 38022 ft 410 kts 267°
2026-04-12 08:37 47.76276 97.48292 38043 ft 410 kts 268°
2026-04-12 08:37 47.75888 97.40657 38038 ft 411 kts 267°
2026-04-12 08:38 47.75494 97.32991 38052 ft 410 kts 266°
2026-04-12 08:38 47.75094 97.25350 38058 ft 410 kts 267°
2026-04-12 08:39 47.74688 97.17658 38064 ft 412 kts 267°
2026-04-12 08:39 47.74279 97.10017 38072 ft 412 kts 267°
2026-04-12 08:40 47.73861 97.02319 38080 ft 412 kts 267°
2026-04-12 08:40 47.73442 96.94702 38086 ft 410 kts 267°
2026-04-12 08:41 47.73016 96.87038 38131 ft 412 kts 267°
2026-04-12 08:41 47.72587 96.79410 38141 ft 412 kts 267°
2026-04-12 08:42 47.72152 96.71755 38142 ft 413 kts 267°
2026-04-12 08:42 47.71711 96.64084 38164 ft 411 kts 267°
2026-04-12 08:43 47.71260 96.56368 38145 ft 413 kts 267°
2026-04-12 08:43 47.71192 96.48650 38154 ft 411 kts 278°
2026-04-12 08:44 47.71776 96.40979 38136 ft 412 kts 277°
2026-04-12 08:44 47.72287 96.33364 38133 ft 411 kts 276°
2026-04-12 08:45 47.72787 96.25704 38133 ft 412 kts 276°
2026-04-12 08:45 47.73282 96.18020 38122 ft 412 kts 276°
2026-04-12 08:46 47.73772 96.10349 38135 ft 412 kts 276°
2026-04-12 08:47 47.74495 95.98844 38137 ft 412 kts 276°
2026-04-12 08:47 47.74974 95.91133 38159 ft 413 kts 276°
2026-04-12 08:48 47.75443 95.83479 38156 ft 413 kts 276°
2026-04-12 08:48 47.75911 95.75779 38159 ft 414 kts 276°
2026-04-12 08:49 47.76376 95.68018 38160 ft 414 kts 276°
2026-04-12 08:49 47.76831 95.60315 38158 ft 414 kts 277°
2026-04-12 08:50 47.77280 95.52657 38154 ft 415 kts 277°
2026-04-12 08:50 47.77728 95.44916 38151 ft 413 kts 277°
2026-04-12 08:51 47.78170 95.37193 38157 ft 415 kts 277°
2026-04-12 08:51 47.78608 95.29460 38167 ft 414 kts 276°
2026-04-12 08:52 47.79037 95.21760 38178 ft 415 kts 276°
2026-04-12 08:52 47.79465 95.13978 38181 ft 415 kts 276°
2026-04-12 08:53 47.79887 95.06261 38167 ft 416 kts 276°
2026-04-12 08:53 47.80304 94.98498 38166 ft 416 kts 276°
2026-04-12 08:54 47.80718 94.90737 38173 ft 415 kts 276°
2026-04-12 08:54 47.81126 94.82903 38157 ft 417 kts 276°
2026-04-12 08:55 47.81531 94.75098 38178 ft 417 kts 276°
2026-04-12 08:55 47.81930 94.67269 38159 ft 418 kts 276°
2026-04-12 08:56 47.82323 94.59432 38167 ft 417 kts 276°
2026-04-12 08:56 47.82713 94.51608 38157 ft 418 kts 276°
2026-04-12 08:57 47.83100 94.43720 38160 ft 419 kts 277°
2026-04-12 08:57 47.83480 94.35828 38171 ft 419 kts 276°
2026-04-12 08:58 47.83857 94.27925 38172 ft 421 kts 276°
2026-04-12 08:58 47.84228 94.20024 38190 ft 420 kts 276°
2026-04-12 08:59 47.84597 94.12039 38169 ft 423 kts 275°
2026-04-12 08:59 47.84956 94.04099 38172 ft 422 kts 276°
2026-04-12 09:00 47.85312 93.96202 38175 ft 421 kts 276°
2026-04-12 09:00 47.85663 93.88206 38171 ft 422 kts 276°
2026-04-12 09:01 47.86009 93.80266 38180 ft 423 kts 276°
2026-04-12 09:01 47.86350 93.72276 38178 ft 424 kts 276°
2026-04-12 09:02 47.86686 93.64267 38178 ft 422 kts 276°
2026-04-12 09:02 47.87012 93.56372 38180 ft 423 kts 276°
2026-04-12 09:03 47.87337 93.48362 38180 ft 422 kts 276°
2026-04-12 09:03 47.87656 93.40404 38185 ft 424 kts 275°
2026-04-12 09:04 47.87968 93.32420 38192 ft 423 kts 275°
2026-04-12 09:04 47.88276 93.24429 38198 ft 424 kts 275°
2026-04-12 09:05 47.88578 93.16439 38201 ft 426 kts 275°
2026-04-12 09:05 47.88878 93.08399 38200 ft 424 kts 275°
2026-04-12 09:06 47.89170 93.00409 38200 ft 425 kts 275°
2026-04-12 09:06 47.89457 92.92335 38194 ft 427 kts 275°
2026-04-12 09:07 47.89741 92.84264 38182 ft 426 kts 275°
2026-04-12 09:07 47.90019 92.76219 38170 ft 427 kts 275°
2026-04-12 09:08 47.90289 92.68147 38169 ft 426 kts 275°
2026-04-12 09:08 47.90554 92.60126 38152 ft 427 kts 275°
2026-04-12 09:09 47.90811 92.52136 38150 ft 426 kts 275°
2026-04-12 09:09 47.91065 92.44129 38151 ft 427 kts 275°
2026-04-12 09:10 47.91311 92.36159 38170 ft 428 kts 275°
2026-04-12 09:10 47.91553 92.28101 38187 ft 426 kts 275°
2026-04-12 09:11 47.91790 92.20081 38186 ft 428 kts 275°
2026-04-12 09:11 47.92022 92.12028 38190 ft 426 kts 275°
2026-04-12 09:12 47.92248 92.03952 38171 ft 428 kts 275°
2026-04-12 09:12 47.92474 91.95730 38186 ft 430 kts 275°
2026-04-12 09:13 47.92691 91.87549 38179 ft 429 kts 275°
2026-04-12 09:13 47.92903 91.79396 38186 ft 430 kts 275°
2026-04-12 09:14 47.93108 91.71291 38209 ft 429 kts 275°
2026-04-12 09:14 47.92733 91.63178 38202 ft 438 kts 256°
2026-04-12 09:14 47.91549 91.59394 38218 ft 447 kts 242°
2026-04-12 09:15 47.89890 91.55845 38243 ft 447 kts 240°
2026-04-12 09:15 47.86748 91.48730 38199 ft 447 kts 242°
2026-04-12 09:16 47.83676 91.41619 38230 ft 447 kts 242°
2026-04-12 09:16 47.80607 91.34508 38220 ft 445 kts 241°
2026-04-12 09:17 47.77480 91.27275 38186 ft 448 kts 241°
2026-04-12 09:17 47.74379 91.20124 38228 ft 447 kts 241°
2026-04-12 09:18 47.71287 91.13013 38190 ft 446 kts 241°
2026-04-12 09:18 47.68206 91.05944 38135 ft 448 kts 241°
2026-04-12 09:19 47.65075 90.98779 38134 ft 448 kts 241°
2026-04-12 09:19 47.61946 90.91640 38132 ft 448 kts 241°
2026-04-12 09:20 47.57361 90.81208 38167 ft 448 kts 241°
2026-04-12 09:21 47.52670 90.70580 38188 ft 449 kts 241°
2026-04-12 09:21 47.49528 90.63483 38166 ft 448 kts 241°
2026-04-12 09:22 47.46389 90.56410 38166 ft 448 kts 241°
2026-04-12 09:22 47.43243 90.49339 38114 ft 449 kts 241°
2026-04-12 09:23 47.39672 90.42807 38125 ft 455 kts 229°
2026-04-12 09:23 47.35521 90.36681 38144 ft 455 kts 230°
2026-04-12 09:24 47.31443 90.30584 38162 ft 455 kts 229°
2026-04-12 09:24 47.27313 90.24416 38152 ft 455 kts 230°
2026-04-12 09:25 47.23211 90.18298 38194 ft 454 kts 230°
2026-04-12 09:25 47.19115 90.12209 38214 ft 454 kts 229°
2026-04-12 09:26 47.15008 90.06114 38204 ft 454 kts 230°
2026-04-12 09:26 47.10885 90.00010 38265 ft 455 kts 229°
2026-04-12 09:27 47.06795 89.93970 38247 ft 454 kts 230°
2026-04-12 09:27 47.02695 89.87927 38242 ft 454 kts 230°
2026-04-12 09:28 46.98562 89.81853 38255 ft 454 kts 230°
2026-04-12 09:28 46.94420 89.75779 38298 ft 455 kts 230°
2026-04-12 09:29 46.90229 89.69645 38276 ft 454 kts 230°
2026-04-12 09:29 46.86089 89.63601 38254 ft 455 kts 230°
2026-04-12 09:30 46.81949 89.57572 38274 ft 452 kts 230°
2026-04-12 09:30 46.77296 89.52409 38243 ft 464 kts 208°
2026-04-12 09:31 46.71766 89.49206 38241 ft 468 kts 207°
2026-04-12 09:31 46.66208 89.45824 38272 ft 465 kts 208°
2026-04-12 09:32 46.60717 89.42464 38247 ft 465 kts 208°
2026-04-12 09:32 46.55200 89.39089 38255 ft 466 kts 208°
2026-04-12 09:33 46.49699 89.35733 38263 ft 463 kts 208°
2026-04-12 09:33 46.44168 89.32366 38264 ft 465 kts 207°
2026-04-12 09:34 46.38687 89.29036 38271 ft 463 kts 207°
2026-04-12 09:34 46.33210 89.25716 38273 ft 460 kts 207°
2026-04-12 09:35 46.27787 89.22435 38271 ft 461 kts 207°
2026-04-12 09:35 46.22327 89.19139 38271 ft 460 kts 207°
2026-04-12 09:36 46.16866 89.15850 38272 ft 459 kts 207°
2026-04-12 09:36 46.11451 89.12595 38285 ft 460 kts 207°
2026-04-12 09:37 46.05983 89.09318 38284 ft 457 kts 207°
2026-04-12 09:37 46.00583 89.06086 38281 ft 458 kts 207°
2026-04-12 09:38 45.95207 89.02875 38286 ft 456 kts 208°
2026-04-12 09:38 45.90078 88.99818 38284 ft 457 kts 207°
2026-04-12 09:39 45.84470 88.96455 38270 ft 457 kts 208°
2026-04-12 09:39 45.79055 88.93195 38284 ft 458 kts 208°
2026-04-12 09:40 45.73718 88.89987 38274 ft 457 kts 208°
2026-04-12 09:40 45.68299 88.86737 38266 ft 457 kts 208°
2026-04-12 09:41 45.62967 88.83546 38292 ft 456 kts 208°
2026-04-12 09:41 45.57597 88.80341 38267 ft 456 kts 208°
2026-04-12 09:42 45.52227 88.77138 38271 ft 456 kts 208°
2026-04-12 09:42 45.46896 88.73968 38288 ft 456 kts 208°
2026-04-12 09:43 45.36202 88.67628 38283 ft 456 kts 208°
2026-04-12 09:44 45.30868 88.64477 38283 ft 454 kts 208°
2026-04-12 09:44 45.25514 88.61317 38256 ft 456 kts 208°
2026-04-12 09:45 45.20139 88.58153 38285 ft 455 kts 208°
2026-04-12 09:45 45.14770 88.54999 38292 ft 455 kts 208°
2026-04-12 09:46 45.09422 88.51865 38268 ft 457 kts 208°
2026-04-12 09:46 45.04077 88.48738 38295 ft 456 kts 208°
2026-04-12 09:47 44.98748 88.45626 38287 ft 455 kts 208°
2026-04-12 09:47 44.93344 88.42477 38261 ft 455 kts 208°
2026-04-12 09:48 44.88242 88.39510 38291 ft 454 kts 208°
2026-04-12 09:48 44.82736 88.36314 38280 ft 454 kts 208°
2026-04-12 09:49 44.77799 88.33453 38273 ft 456 kts 208°
2026-04-12 09:49 44.72290 88.30248 38285 ft 456 kts 208°
2026-04-12 09:50 44.66911 88.27097 38279 ft 454 kts 208°
2026-04-12 09:50 44.61580 88.23981 38286 ft 456 kts 208°
2026-04-12 09:51 44.56235 88.20862 38282 ft 455 kts 208°
2026-04-12 09:51 44.50909 88.17760 38284 ft 455 kts 208°
2026-04-12 09:52 44.45607 88.14676 38287 ft 454 kts 208°
2026-04-12 09:52 44.40303 88.11597 38287 ft 455 kts 207°
2026-04-12 09:53 44.35026 88.08542 38288 ft 454 kts 207°
2026-04-12 09:53 44.29689 88.05456 38285 ft 455 kts 207°
2026-04-12 09:54 44.24382 88.02395 38286 ft 455 kts 207°
2026-04-12 09:54 44.19119 87.99320 38298 ft 452 kts 211°
2026-04-12 09:54 44.16779 87.97209 38274 ft 443 kts 225°
2026-04-12 09:55 44.14920 87.94310 38325 ft 433 kts 238°
2026-04-12 09:55 44.11771 87.88132 38276 ft 438 kts 237°